Погода в Каце

Погода в Каце : погода сейчас, прогноз погоды и архив. Всё, что Вы хотите узнать о погоде в Каце!

Поиск расширенной информации на нашем сайте:

Полезная информация: Плитка из резины резиновая плитка.

Другие новости

Новости СМИ2

Главная страница сайта

Новости сайта

02.10.2013

Напоминаем, что на нашем новом сайте вы можете получить высокодетализированные прогнозы погоды по пунктам России, СНГ и мира (включающие важные для авиации метеовеличины, такие как направление и скорость ветра, видимость, явления погоды, количество и форма облачности, нижняя и верхняя граница облачности), а также ознакомиться с разнообразными материалами по авиационной метеорологии и подборкой полезных ссылок на эту тему.

Сайт Метеоцентр.Азия посвящён разработке технологий оптимизации авиаметеорологического обслуживания, включая проектирование и перспективное создание нескольких автоматизированных авиаметеорологических систем:
- система выпуска высокодетальных прогностических карт явлений погоды для нижнего воздушного пространства по России и ближнему зарубежью;
- система верификации прогнозов TAF (выпускаемых синоптиками официальных АМСГ РФ и ближнего зарубежья) и AUTOTAF (выпускаемых сайтом Метеоцентр.Азия) - выявление ошибок, онлайн-сопоставление с фактической погодой METAR, автоматическое внесение коррективов в прогнозы при резком отклонении фактической погоды от прогноза, подсчёт оправдываемости прогнозов по элементам и в целом;
- система обработки, анализа и отображения авиаметеорологической информации для применения провайдерами метеорологической информации.

Рекомендуем: Видеоинтерфейс, интерфейс hdmi мультимедийный: схема распиновки.

Погода в Каце - сегодня

Время (UTC), дата Ветер
(°,м/с) 
Видим.   Явления Облачность Т
(°С)
Тd
(°С)
f(%) Тe
(°С)
Pmin
(гПа)
dP
(гПа)
Po
(мм)
O2
(г/м3)
Тmin Tmax R s Состояние
почвы
03 26.05.17 230 (ЮЗ) 7-13{16}  20000 м    9/9 660 м кучево-дожд. 
[Cb cap]
+11.1 +0 46 +9  1008.9  -1.5  715  277           
06 26.05.17 260 (З) 10-18{18}  20000 м  {ливн. осадки}  3/3 1000 м 
[Cu med, cong]
+11.4 -4.8 32 +9  1011.3  2.2  716  278           
09 26.05.17 270 (З) 4-10{18}  20000 м    5/5 1000 м 
[Cu med, cong]
+10.2 -1.9 43 +9  1015  3.3  719  279           
12 26.05.17 280 (З) 3{12}  20000 м    6/6 1000 м 
[Cu med, cong]
+8.7 -2.8 44 +8  1017.8  2.3  721  282    +12.3  0.6     
15 26.05.17 230 (ЮЗ) 1{11}  20000 м    3/0 верхняя 
[Ci sp]
+1.7 -2.4 74 +2  1021.8  2.3  722  289           
18 26.05.17 250 (З) 20000 м    8/0 верхняя 
[Ci sp]
+2.9 -1.5 73 +2  1022  0.5  723  288           
00 27.05.17 300 (СЗ) 20000 м    5/3 1000 м верхняя 
[Cu med, cong|Ci sp]
+2 -2.7 71 +1  1028.1  3.7  727  291  -1.1        влажная 
03 27.05.17 270 (З) 20000 м    5/5 1000 м 
[Cu med, cong]
+5.6 -6.1 43 +4  1028.9  1.4  728  288           
06 27.05.17 260 (З) 20000 м    3/0 верхняя 
[Ci fib]
+9.6 -6.4 32 +9  1027.2  -0.7  727  284           
09 27.05.17 260 (З) 20000 м    4/0 верхняя 
[Ci fib]
+12.7 -8.3 22 +13  1024.1  -2.4  726  280           
12 27.05.17 300 (СЗ) 20000 м    6/6 2000 м средняя 
[Ac trans]
+13.1 -7 24 +14  1021.9  -2  724  279    +13.6       
15 27.05.17 тихо ()   20000 м    8/8 2000 м средняя 
[Ac und]
+6.4 +0.2 64 +6  1022.4  -0.8  724  285           
18 27.05.17 тихо ()   20000 м    5/5 2000 м средняя 
[Ac trans]
+0.2 -1.2 90 1022.4  -1.3  723  291           
21 27.05.17 тихо ()   20000 м    ясно 
-1.6 -2.2 96 -2  1022  -0.7  722  293           
00 28.05.17 тихо ()   20000 м    4/0 верхняя 
[Ci fib]
+7.6 +1.4 65 +8  1019.5  -0.5  722  283  -1.9        влажная 
03 28.05.17 200 (Ю) 20000 м    3/0 верхняя 
[Ci fib]
+17.4 -2.3 26 +18  1016.2  -1.2  721  273           
06 28.05.17 220 (ЮЗ) 20000 м    4/0 верхняя 
[Ci fib]
+20.7 -1.3 23 +21  1013.4  -2.1  719  269           
09 28.05.17 070 (В) 20000 м    5/0 верхняя 
[Ci fib]
+22.6 +0.5 23 +23  1011.3  -1.6  718  267           
12 28.05.17 100 (В) 20000 м    8/0 верхняя 
[Ci sp]
+20.8 +1.5 28 +21  1010.2  -1.3  717  268    +23       
15 28.05.17 050 (СВ) 20000 м    6/0 верхняя 
[Ci sp]
+14.6 +4.2 50 +16  1010.5  -0.9  716  273           
18 28.05.17 070 (В) 20000 м    5/0 верхняя 
[Ci fib]
+9.4 +4.4 71 +10  1010.2  -1.2  715  278           
21 28.05.17 070 (В) 20000 м    8/8 2000 м средняя 
[As trans]
+6.8 +4.2 83 +8  1009.4  -1.3  714  280           
00 29.05.17 тихо ()   20000 м    3/0 верхняя 
[Ci fib]
+14.6 +5.2 53 +15  1006.9  -0.8  714  272  +5.8        влажная 
03 29.05.17 190 (Ю) 20000 м    3/0 верхняя 
[Ci fib]
+22.8 +2.2 26 +23  1004.3  -1  713  265           
06 29.05.17 280 (З) 4{10}  20000 м    5/4 1000 м верхняя 
[Cu med, cong|Ci fib]
+25.5 +1.3 21 +26  1003.3  -0.5  713  262           
Время (UTC), дата Ветер
(°,м/с) 
Видим.   Явления Облачность Т
(°С)
Тd
(°С)
f(%) Тe
(°С)
Pmin
(гПа)
dP
(гПа)
Po
(мм)
O2
(г/м3)
Тmin Tmax R s Состояние
почвы

Для получения пояснительной информации подведите курсор к названию столбца.

ПОГОДА в Каце - архив

Всё, что Вы хотите узнать о погоде в Каце - удобно и подробно!

Выберите нужную дату (начиная с 1 января 2015* года) и нажмите кнопку "Найти".
Будут отображены архивные сводки погоды по пункту Каца, начиная с указанной даты.


Отображать данные в формате CSV (для использования в таблицах Excel)


Внимание! Наш архив погоды предназначен исключительно для личного некоммерческого использования в познавательных целях. Если Вам необходимы официальные справки о состоянии погоды (для производственных, юридических, коммерческих и т.п. целей), обращайтесь в органы Росгидромета.

*Примечание: данная дата относится к архиву по метеостанциям СССР (Россия, СНГ, Балтия).
Архив по метеостанциям Зарубежной Европы и Азии (кроме Китая) хранится 10 дней, по другим регионам земного шара (Китай, Африка, Америка, Австралия, Океания) - 1 день.

Каца - район местоположения метеостанции


Название, широта, долгота, высота метеостанции:
Каца 56.1°ш. 92.2°д. 479 м над ур. моря [Российская Федерация]

Дополнительная информация

В oтличие oт бoльшинства пoгoдных сайтoв мы публикуем пoдрoбную метеoинфoрмацию в детальнoм прoфессиoнальнoм фoрмате.

Характеристики температуры и влажнoсти вoздуха измеряются на высoте 2 м в тени вдали oт зданий и деревьев.
Скoрoсть ветра измеряется на высoте 10 м (на урoвне рoста челoвека скoрoсть ветра ниже в 1.5-2 раза). Если метеoстанция нахoдится в гoрoде или в лесу, тo скoрoсть ветра занижена на 2-4 м/с пo сравнению с oткрытым местoм. Скoрoсть ветра над акватoриями крупных рек и oзёр, а также на вершинах хoлмoв на 2-5 м/с выше, чем в oбычных услoвиях.
Атмoсфернoе давление в разных тoчках местнoсти мoжет значительнo oтличаться oт давления на метеoстанции, в зависимoсти oт услoвий рельефа (при пoдъёме на 10 м давление пoнижается примернo на 1 мм рт.ст.).